Location: *
(58.4167°N, 22.5000°E)
Time: 12:00:06
(UTC+00:00)

COSMOS 2406 - Pass Details

Date: 22 September 2019
Orbit: 842 x 865 km, 71.0° (Epoch: 17 October)

Event Time Altitude Azimuth Distance (km) Brightness Sun altitude
Rises 21:59:42 0° 322° (NW) 3,460 7.2 -31.3°
Reaches altitude 10° 22:02:14 10° 317° (NW) 2,520 6.3 -31.3°
Enters shadow 22:06:12 38° 287° (WNW) 1,295 4.2 -31.3°
